This demonstration page uses our WeatherBlox Daily Observations layout. Learn more.

Left ArrowRight Arrow

39.92423, -83.80882

Hourly Observations for July 14, 2022

Temp ( °F °C ) Dew Point ( °F °C ) Humidity (%) Winds ( mph kmh ) Pressure ( in mb ) Visibility ( mi km ) Precip ( " mm )
12:56 am 00:56 Clear 64 18 N/A N/A Calm 30.02 1017 10 16 0.00 0.00
1:56 am 01:56 Clear N/A N/A N/A Calm N/A 10 16 0.00 0.00
2:56 am 02:56 Mostly Clear N/A N/A N/A Calm N/A 10 16 0.00 0.00
3:56 am 03:56 Clear N/A N/A N/A Calm N/A 9 14 0.00 0.00
4:56 am 04:56 Clear N/A N/A N/A Calm N/A 9 14 0.00 0.00
5:53 am 05:53 Mostly Clear N/A N/A N/A Calm N/A 7 11 0.00 0.00
5:56 am 05:56 Mostly Clear N/A N/A N/A Calm N/A 8 13 0.00 0.00
6:15 am 06:15 Mostly Clear with Mist and Fog N/A N/A N/A Calm N/A 2 3 0.00 0.00
6:25 am 06:25 Mostly Cloudy with Mist and Fog 61 16 N/A N/A Calm 30.06 1018 1 1 0.00 0.00
6:35 am 06:35 Mostly Cloudy with Fog 59 15 N/A N/A Calm 30.06 1018 1 1 0.00 0.00
6:39 am 06:39 Partly Cloudy with Mist and Fog 61 16 N/A N/A Calm 30.06 1018 1 2 0.00 0.00
6:45 am 06:45 Mostly Cloudy with Mist and Fog 59 15 N/A N/A Calm 30.06 1018 1 1 0.00 0.00
6:51 am 06:51 Mostly Cloudy with Fog 59 15 N/A N/A Calm 30.06 1018 0 0 0.00 0.00
6:56 am 06:56 Mostly Cloudy with Fog 59 15 N/A N/A NE 3 6 30.06 1018 1 1 0.00 0.00
7:01 am 07:01 Partly Cloudy with Mist and Fog 59 15 N/A N/A ENE 3 6 30.07 1018 2 2 0.00 0.00
7:04 am 07:04 Hazy 61 16 N/A N/A Calm 30.07 1018 4 6 0.00 0.00
7:56 am 07:56 Sunny 66 19 N/A N/A Calm 30.08 1019 10 16 0.00 0.00
8:56 am 08:56 Sunny 70 21.1 69 20.6 97 97 ENE 7 11 30.10 1019 10 16 0.00 0.00
9:56 am 09:56 Sunny 74 23.3 66 18.9 76 76 NE 6 9 30.11 1020 10 16 0.00 0.00
10:56 am 10:56 Sunny 76 24.4 64 17.8 67 67 VRB 3 6 30.12 1020 10 16 0.01 0.25
11:56 am 11:56 Partly Cloudy 76 24.4 65 18.3 69 69 Calm 30.13 1020 10 16 0.00 0.00
12:56 pm 12:56 Mostly Cloudy 77 25 62 16.7 60 60 NW 6 9 30.13 1020 10 16 0.00 0.00
1:56 pm 13:56 Mostly Cloudy 81 27.2 65 18.3 58 58 VRB 6 9 30.09 1019 10 16 0.00 0.00
2:56 pm 14:56 Mostly Sunny 80 26.7 65 18.3 60 60 ENE 8 13 30.08 1019 10 16 0.00 0.00
3:56 pm 15:56 Partly Cloudy 81 27.2 65 18.3 58 58 ENE 8 13 30.08 1018 10 16 0.00 0.00
4:56 pm 16:56 Mostly Cloudy 78 25.6 63 17.2 60 60 NNE 6 9 30.07 1018 10 16 0.00 0.00
5:56 pm 17:56 Mostly Sunny 81 27.2 61 16.1 51 51 Calm 30.07 1018 10 16 0.00 0.00
6:56 pm 18:56 Sunny 79 26.1 65 18.3 62 62 ENE 7 11 30.09 1019 10 16 0.00 0.00
7:56 pm 19:56 Sunny 75 23.9 64 17.8 69 69 NE 7 11 30.10 1019 10 16 0.00 0.00
8:56 pm 20:56 Mostly Cloudy 72 22.2 64 17.8 76 76 NE 8 13 30.12 1020 10 16 0.00 0.00
9:56 pm 21:56 Clear 68 20 65 18.3 90 90 NE 7 11 30.13 1020 10 16 0.00 0.00
10:56 pm 22:56 Clear 66 18.9 64 17.8 93 93 NE 7 11 30.15 1021 10 16 0.00 0.00
11:56 pm 23:56 Clear 64 17.8 64 17.8 100 100 ENE 6 9 30.16 1022 10 16 0.00 0.00

Powered by AerisWeather